Regional Weather Roundup
Issued by NWS

Home | Current Version | Previous Version | Graphics & Text | Print | Product List | Glossary On
Versions: 1 2 3 4 5 6 7 8 9 10 11 12 13 14 15 16 17 18 19 20 21 22 23 24 25 26 27 28 29 30 31 32 33 34 35 36 37 38 39 40 41 42 43 44 45 46 47 48 49 50
000
ASUS43 KDMX 201606
RWRIA

WEATHER ROUNDUP FOR IOWA
NATIONAL WEATHER SERVICE DES MOINES IA
1100 AM CDT WED SEP 20 2017

NOTE: "FAIR" INDICATES FEW OR NO CLOUDS BELOW 12,000 FEET WITH NO
SIGNIFICANT WEATHER AND/OR OBSTRUCTIONS TO VISIBILITY.

* - THESE STATIONS ARE NOT NWS STATIONS...THUS NOT UNDER NWS
QUALITY CONTROL.  THEY ALSO DO NOT REPORT WEATHER SUCH
AS PRECIPITATION OR FOG.

IAZ001>003-012>014-020>022-031>034-043>046-201700-
   NORTHWEST IOWA

CITY           SKY/WX    TMP DP  RH WIND       PRES   REMARKS
CARROLL *      SUNNY     75  57  53 NW10      29.79R
CHEROKEE *     SUNNY     65  55  70 NW9G18    29.83R
DENISON *      SUNNY     70  55  60 N13       29.82S
LE MARS *      SUNNY     66  52  59 NW9G16    29.84R
ORANGE CITY *  SUNNY     64  55  72 NW8       29.83R
SHELDON *      SUNNY     64  52  63 NW12G18   29.82S
SIOUX CITY     SUNNY     65  54  67 NW12      29.85R
SPENCER        SUNNY     66  54  65 NW16      29.82R
STORM LAKE *   SUNNY     68  54  60 NW14      29.82R
$$

IAZ055>058-069>071-079>083-090>094-201700-
   SOUTHWEST IOWA

CITY           SKY/WX    TMP DP  RH WIND       PRES   REMARKS
ATLANTIC *     PTSUNNY   75  63  64 NW13      29.78R
AUDUBON *      MOSUNNY   73  63  68 NW9       29.80R
CLARINDA *     MOSUNNY   82  70  65 SW8G16    29.78S HX  86
COUNCIL BLFS * SUNNY     72  59  64 NW12G17   29.80R
CRESTON *      PTSUNNY   82 -31   1 SW14G21   29.79R
HARLAN  *      SUNNY     73  55  53 N14G21    29.83R
LAMONI         MOSUNNY   81  71  71 S14G22    29.79S HX  85
RED OAK *      CLOUDY    77  70  78 NW9       29.77R
SHENANDOAH *   MOSUNNY   82  70  65 VRB6      29.77R HX  86
$$

IAZ047>049-059>061-072>074-084-201700-
   CENTRAL IOWA

CITY           SKY/WX    TMP DP  RH WIND       PRES   REMARKS
AMES           SUNNY     81  72  74 SW13      29.76R HX  85
ANKENY *       PTSUNNY   81  72  74 SW9G15    29.77R HX  84
BOONE *        PTSUNNY   81  70  69 SW8G14    29.75S HX  84
CHARITON *     MOSUNNY   81  72  74 SW14G21   29.78S HX  84
DES MOINES     PTSUNNY   82  70  66 SW12      29.75R HX  86
GRINNELL*      SUNNY     81  69  67 S14       29.79S HX  84
KNOXVILLE *    MOSUNNY   82  70  65 S14       29.76F HX  86
MARSHALLTOWN   CLOUDY    80  71  74 SW12      29.76R HX  84
NEWTON *       MOSUNNY   82  70  65 SW14      29.78R HX  86
PELLA *        MOSUNNY   83  69  61 SW10G17   29.79S HX  87
PERRY *        PTSUNNY   80  72  77 SW9       29.76S HX  84
$$

IAZ004>006-015-016-023>025-035-036-201700-
   NORTH CENTRAL IOWA

CITY           SKY/WX    TMP DP  RH WIND       PRES   REMARKS
ALGONA *       SUNNY     72  57  60 NW14      29.80R
CLARION *      MOSUNNY   77  68  73 W13       29.77R
ESTHERVILLE    SUNNY     66  56  70 NW16      29.80R
FORT DODGE *   SUNNY     73  58  59 NW9       29.79R
MASON CITY     MOSUNNY   78  69  73 W13       29.76R HX  80
FOREST CITY *  PTSUNNY   73  61  64 NW10      29.77R
IOWA FALLS *   PTSUNNY   80  70  71 SW14      29.77R HX  83
$$

IAZ007>011-017>019-026>030-037>042-050>054-066-201700-
   NORTHEAST IOWA

CITY           SKY/WX    TMP DP  RH WIND       PRES   REMARKS
CEDAR RAPIDS   SUNNY     82  70  66 S13G23    29.80S HX  86
CHARLES CITY * CLOUDY    77  70  78 S12       29.76R
CLINTON *      SUNNY     84  71  65 S14       29.84S HX  89
DECORAH *      PTSUNNY   79  68  69 S10G16    29.76S HX  81
DUBUQUE        SUNNY     79  69  71 S15       29.83R HX  81
MONTICELLO *   SUNNY     82  70  65 S15       29.81S HX  86
OELWEIN *      MOSUNNY   81  70  69 S14G21    29.78R HX  84
WATERLOO       CLOUDY    79  68  69 S13       29.75R HX  81
$$

IAZ064-065-067-068-078-201700-
   EAST CENTRAL IOWA

CITY           SKY/WX    TMP DP  RH WIND       PRES   REMARKS
DAVENPORT      SUNNY     83  69  62 S12       29.85R HX  86
IOWA CITY      SUNNY     84  70  62 S17       29.82S HX  88
MT. PLEASANT * SUNNY     85  68  55 S13       29.83F HX  88
MUSCATINE *    SUNNY     86  70  58 S16       29.82S HX  90
QUAD CITIES    SUNNY     85  68  56 S13G20    29.82S HX  88
$$

IAZ062-063-075>077-085>089-095>099-201700-
   SOUTHEAST IOWA

CITY           SKY/WX    TMP DP  RH WIND       PRES   REMARKS
BURLINGTON     SUNNY     85  71  63 SW14G24   29.84S HX  90
FAIRFIELD *    SUNNY     84  68  58 S14G23    29.82R HX  87
FORT MADISON * SUNNY     84  72  65 S13G18    29.85S HX  89
KEOKUK *       SUNNY     84  70  61 S16G25    29.84F HX  88
OSKALOOSA *      N/A     83  70  63 S13G21    29.80S HX  87
CENTERVILLE *    N/A     82  72  69 S13       29.83S HX  87
OTTUMWA        SUNNY     83  70  64 S16       29.80S HX  87
WASHINGTON *   SUNNY     84  72  65 SW12G21   29.83S HX  89
$$

ABBREVIATIONS USED IN REMARKS
   TC - TEMPERATURES IN CELSIUS
  WCI - WIND CHILL INDEX
   HX - HEAT INDEX
  VSB - VISIBILITY
$$





USA.gov is the U.S. government's official web portal to all federal, state and local government web resources and services.